Regional Weather Roundup
Issued by NWS Goodland, KS

Home | Current Version | Previous Version | Text Only | Print | Product List | Glossary On
Versions: 1 2 3 4 5 6 7 8 9 10 11 12 13 14 15 16 17 18 19 20 21 22 23 24 25 26 27 28 29 30 31 32 33 34 35 36 37 38 39 40 41 42 43 44 45 46 47 48 49 50
000
ASUS43 KGLD 250608
RWRGLD

GOODLAND FORECAST AREA HOURLY WEATHER ROUNDUP
NATIONAL WEATHER SERVICE GOODLAND KS
1200 AM MDT MON MAY 25 2015

...OFFICIAL OBSERVATIONS...

CITY           SKY/WX    TMP DP  RH WIND       PRES   REMARKS
GOODLAND KS    CLOUDY    52  50  93 S15       29.83R
HILL CITY KS   LGT RAIN  56  53  90 W7        29.82F
IMPERIAL NEB   CLOUDY    52  49  89 SW6       29.77F
MCCOOK NEB     HVY RAIN  54  52  93 S10       29.82R FOG
AKRON CO       CLOUDY    46  45  96 NW8       29.84S
BURLINGTON CO  CLOUDY    51  48  89 SE7       29.85R
LIMON CO       CLOUDY    43  42  97 NW5       29.88S
$$

...UNOFFICIAL OBSERVATIONS...

CITY           SKY/WX    TMP DP  RH WIND       PRES   REMARKS
GOVE KS          N/A     54  32  43 MISG        N/A
LENORA KS        N/A     53  32  45 MISG        N/A
SHARON SPRINGS   N/A     52  50  93 MISG        N/A
KIT CARSON CO    N/A     50  47  90 MISG        N/A
$$


USA.gov is the U.S. government's official web portal to all federal, state and local government web resources and services.